Hourly Data Report for June 28, 2021

MANIWAKI AIRPORT
QUEBEC
Current Station Operator: ECCC - MSC

46°16'29.000" N
75°59'31.000" W
199.70 m
7034482
71721
WMJ

Download Data

Hourly Data (June 2021)
Hourly Data Report for June 28, 2021
TIME
LST
Temp Definition
°C
Dew Point Definition
°C
Rel Hum Definition
%
Precip. Amount Definition
mm

Wind Dir Definition
10's deg

Wind Spd Definition
km/h
Visibility Definition
km
Stn Press Definition
kPa
Hmdx Definition


Wind Chill Definition


Weather Definition


00:00 20.4 20.1 98 0.0 15 4   99.10 28   LegendNANA
01:00 20.4 20.1 98 0.0 10 1   99.12 28   LegendNANA
02:00 20.5 19.7 95 0.0 36 7   99.16 28   LegendNANA
03:00 20.0 19.4 96 0.0 36 4   99.20 27   LegendNANA
04:00 19.5 18.8 96 0.1 2 2   99.24     LegendNANA
05:00 19.5 18.7 95 0.0 36 4   99.30     LegendNANA
06:00 19.3 18.7 96 0.2 35 4   99.34     LegendNANA
07:00 20.4 19.2 93 0.0 33 2   99.38 27   LegendNANA
08:00 21.0 19.1 89 0.0 2 4   99.40 28   LegendNANA
09:00 21.4 19.5 89 0.0 31 3   99.44 29   LegendNANA
10:00 22.6 19.9 85 0.0 31 2   99.44 30   LegendNANA
11:00 24.5 20.8 80 0.0 36 4   99.45 33   LegendNANA
12:00 25.6 20.5 74 0.0 2 6   99.40 34   LegendNANA
13:00 25.5 20.4 74 0.0 22 4   99.39 33   LegendNANA
14:00 26.6 21.0 72 0.7 14 5   99.38 35   LegendNANA
15:00 28.1 21.6 68 0.0 22 10   99.36 37   LegendNANA
16:00 26.1 21.2 74 0.0 1 9   99.39 35   LegendNANA
17:00 25.3 20.9 77 0.0 35 11   99.41 34   LegendNANA
18:00 24.0 20.6 81 0.0 34 11   99.43 32   LegendNANA
19:00 24.4 19.8 76 0.0 33 11   99.45 32   LegendNANA
20:00 21.9 20.2 90 0.0 2 4   99.48 30   LegendNANA
21:00 20.2 19.6 97 0.0 25 2   99.53 27   LegendNANA
22:00 19.2 18.9 98 0.0 21 2   99.53     LegendNANA
23:00 18.5 18.2 98 0.0 22 3   99.57     LegendNANA

Notes on Data Quality.

Legend

  • E = Estimated
  • M = Missing
  • NA = Not Available*
  • [empty] = Indicates an unobserved value
Date modified: